Previsão horária em Abasolo

Hoje, 14 Abril, Quarta-feira

Tempo Temperatura Precipitação Vento Pressão Humidade
00:00 +19°C° 0 mm 1 m/s 621 mmHg 48%
01:00 +18°C° 0 mm 1 m/s 620 mmHg 53%
02:00 +15°C° 0 mm 0 m/s 620 mmHg 57%
03:00 +15°C° 0 mm 0 m/s 620 mmHg 58%
04:00 +15°C° 0 mm 0 m/s 620 mmHg 59%
05:00 +14°C° 0 mm 0 m/s 620 mmHg 60%
06:00 +17°C° 0 mm 0 m/s 622 mmHg 50%
07:00 +20°C° 0 mm 0 m/s 623 mmHg 40%
08:00 +26°C° 0 mm 1 m/s 624 mmHg 31%
09:00 +28°C° 0 mm 1 m/s 624 mmHg 25%
10:00 +31°C° 0 mm 1 m/s 624 mmHg 20%
11:00 +34°C° 0 mm 1 m/s 625 mmHg 15%
12:00 +34°C° 0 mm 1 m/s 624 mmHg 14%
13:00 +36°C° 0 mm 2 m/s 623 mmHg 13%
14:00 +37°C° 0 mm 2 m/s 622 mmHg 11%
15:00 +21°C° 0.1 mm 2 m/s 620 mmHg 43%
16:00 +24°C° 0.1 mm 3 m/s 620 mmHg 39%
17:00 +26°C° 0.1 mm 5 m/s 620 mmHg 34%
18:00 +24°C° 0 mm 3 m/s 620 mmHg 39%
19:00 +21°C° 0 mm 2 m/s 620 mmHg 44%
20:00 +21°C° 0 mm 1 m/s 620 mmHg 49%
21:00 +19°C° 0 mm 1 m/s 621 mmHg 56%
22:00 +18°C° 0 mm 1 m/s 621 mmHg 58%
23:00 +16°C° 0 mm 0 m/s 621 mmHg 60%

Amanhã, 15 Abril, Quinta-feira

Tempo Temperatura Precipitação Vento Pressão Humidade
00:00 +15°C° 0 mm 0 m/s 621 mmHg 63%
01:00 +14°C° 0 mm 0 m/s 620 mmHg 67%
02:00 +14°C° 0 mm 0 m/s 620 mmHg 70%
03:00 +19°C° 0 mm 1 m/s 620 mmHg 53%
04:00 +16°C° 0 mm 1 m/s 620 mmHg 57%
05:00 +15°C° 0 mm 1 m/s 620 mmHg 61%
06:00 +19°C° 0 mm 1 m/s 621 mmHg 51%
07:00 +22°C° 0 mm 1 m/s 622 mmHg 41%
08:00 +25°C° 0 mm 1 m/s 623 mmHg 31%
09:00 +28°C° 0 mm 1 m/s 623 mmHg 25%
10:00 +31°C° 0 mm 1 m/s 624 mmHg 19%
11:00 +34°C° 0 mm 2 m/s 624 mmHg 14%
12:00 +35°C° 0 mm 2 m/s 623 mmHg 12%
13:00 +36°C° 0 mm 2 m/s 622 mmHg 11%
14:00 +37°C° 0 mm 2 m/s 622 mmHg 10%
15:00 +36°C° 0 mm 3 m/s 621 mmHg 10%
16:00 +35°C° 0 mm 3 m/s 621 mmHg 10%
17:00 +34°C° 0 mm 3 m/s 620 mmHg 11%
18:00 +30°C° 0 mm 3 m/s 620 mmHg 15%
19:00 +27°C° 0 mm 2 m/s 620 mmHg 19%
20:00 +24°C° 0 mm 2 m/s 619 mmHg 23%
21:00 +23°C° 0 mm 2 m/s 619 mmHg 25%
22:00 +21°C° 0 mm 2 m/s 619 mmHg 27%
23:00 +19°C° 0 mm 2 m/s 619 mmHg 30%

Depois de amanhã, 16 Abril, Sexta-feira

Tempo Temperatura Precipitação Vento Pressão Humidade
00:00 +19°C° 0 mm 1 m/s 619 mmHg 31%
01:00 +19°C° 0 mm 1 m/s 619 mmHg 33%
02:00 +18°C° 0 mm 1 m/s 618 mmHg 35%
03:00 +16°C° 0 mm 1 m/s 618 mmHg 36%
04:00 +16°C° 0 mm 1 m/s 618 mmHg 37%
05:00 +15°C° 0 mm 1 m/s 618 mmHg 39%
06:00 +19°C° 0 mm 1 m/s 620 mmHg 33%
07:00 +23°C° 0 mm 1 m/s 621 mmHg 28%
08:00 +26°C° 0 mm 1 m/s 622 mmHg 23%
09:00 +28°C° 0 mm 2 m/s 622 mmHg 19%
10:00 +31°C° 0 mm 2 m/s 622 mmHg 16%
11:00 +34°C° 0 mm 3 m/s 622 mmHg 12%
12:00 +35°C° 0 mm 3 m/s 621 mmHg 11%
13:00 +36°C° 0 mm 3 m/s 621 mmHg 10%
14:00 +36°C° 0 mm 4 m/s 620 mmHg 10%
15:00 +36°C° 0 mm 4 m/s 620 mmHg 10%
16:00 +35°C° 0 mm 4 m/s 619 mmHg 11%
17:00 +34°C° 0 mm 5 m/s 619 mmHg 11%
18:00 +30°C° 0 mm 4 m/s 619 mmHg 14%
19:00 +27°C° 0 mm 3 m/s 619 mmHg 18%
20:00 +22°C° 0 mm 3 m/s 619 mmHg 21%
21:00 +21°C° 0 mm 2 m/s 619 mmHg 23%
22:00 +21°C° 0 mm 1 m/s 619 mmHg 24%
23:00 +19°C° 0 mm 1 m/s 619 mmHg 26%

17 Abril, Sábado

Tempo Temperatura Precipitação Vento Pressão Humidade
00:00 +19°C° 0 mm 1 m/s 618 mmHg 28%
01:00 +18°C° 0 mm 1 m/s 618 mmHg 30%
02:00 +16°C° 0 mm 1 m/s 618 mmHg 31%
03:00 +16°C° 0 mm 1 m/s 618 mmHg 33%
04:00 +15°C° 0 mm 1 m/s 618 mmHg 35%
05:00 +13°C° 0 mm 0 m/s 618 mmHg 37%
06:00 +19°C° 0 mm 1 m/s 619 mmHg 31%
07:00 +22°C° 0 mm 1 m/s 620 mmHg 26%
08:00 +25°C° 0 mm 1 m/s 622 mmHg 20%
09:00 +28°C° 0 mm 1 m/s 622 mmHg 17%
10:00 +30°C° 0 mm 2 m/s 622 mmHg 14%
11:00 +34°C° 0 mm 3 m/s 622 mmHg 11%
12:00 +34°C° 0 mm 3 m/s 621 mmHg 10%
13:00 +35°C° 0 mm 4 m/s 621 mmHg 8%
14:00 +36°C° 0 mm 4 m/s 620 mmHg 7%
15:00 +35°C° 0 mm 4 m/s 620 mmHg 8%
16:00 +34°C° 0 mm 5 m/s 619 mmHg 9%
17:00 +33°C° 0 mm 6 m/s 619 mmHg 9%
18:00 +28°C° 0 mm 4 m/s 619 mmHg 12%
19:00 +25°C° 0 mm 3 m/s 619 mmHg 15%
20:00 +20°C° 0 mm 2 m/s 619 mmHg 18%
21:00 +19°C° 0 mm 2 m/s 619 mmHg 21%
22:00 +19°C° 0 mm 1 m/s 619 mmHg 24%
23:00 +18°C° 0 mm 1 m/s 619 mmHg 26%

18 Abril, Domingo

Tempo Temperatura Precipitação Vento Pressão Humidade
00:00 +16°C° 0 mm 1 m/s 619 mmHg 29%
01:00 +15°C° 0 mm 1 m/s 618 mmHg 31%
02:00 +14°C° 0 mm 0 m/s 618 mmHg 33%
03:00 +13°C° 0 mm 0 m/s 618 mmHg 36%
04:00 +13°C° 0 mm 0 m/s 618 mmHg 38%
05:00 +12°C° 0 mm 0 m/s 618 mmHg 41%
06:00 +16°C° 0 mm 1 m/s 620 mmHg 35%
07:00 +21°C° 0 mm 1 m/s 621 mmHg 29%
08:00 +24°C° 0 mm 1 m/s 622 mmHg 24%
09:00 +27°C° 0 mm 2 m/s 622 mmHg 19%
10:00 +29°C° 0 mm 2 m/s 622 mmHg 14%
11:00 +33°C° 0 mm 3 m/s 622 mmHg 9%
12:00 +34°C° 0 mm 3 m/s 621 mmHg 8%
13:00 +34°C° 0 mm 4 m/s 621 mmHg 7%
14:00 +35°C° 0 mm 4 m/s 620 mmHg 5%
15:00 +34°C° 0 mm 5 m/s 620 mmHg 5%
16:00 +33°C° 0 mm 5 m/s 619 mmHg 5%
17:00 +32°C° 0 mm 5 m/s 619 mmHg 4%
18:00 +27°C° 0 mm 4 m/s 619 mmHg 7%
19:00 +24°C° 0 mm 3 m/s 619 mmHg 10%
20:00 +19°C° 0 mm 2 m/s 618 mmHg 13%
21:00 +18°C° 0 mm 2 m/s 618 mmHg 15%
22:00 +16°C° 0 mm 1 m/s 618 mmHg 17%
23:00 +15°C° 0 mm 1 m/s 619 mmHg 19%

19 Abril, Segunda-feira

Tempo Temperatura Precipitação Vento Pressão Humidade
00:00 +14°C° 0 mm 1 m/s 618 mmHg 20%
01:00 +14°C° 0 mm 1 m/s 618 mmHg 22%
02:00 +12°C° 0 mm 0 m/s 618 mmHg 24%
03:00 +11°C° 0 mm 0 m/s 618 mmHg 26%
04:00 +11°C° 0 mm 0 m/s 618 mmHg 28%
05:00 +10°C° 0 mm 0 m/s 617 mmHg 30%
06:00 +14°C° 0 mm 0 m/s 619 mmHg 25%
07:00 +17°C° 0 mm 0 m/s 620 mmHg 21%
08:00 +21°C° 0 mm 0 m/s 621 mmHg 16%
09:00 +25°C° 0 mm 1 m/s 621 mmHg 13%
10:00 +28°C° 0 mm 2 m/s 621 mmHg 11%
11:00 +31°C° 0 mm 3 m/s 621 mmHg 8%
12:00 +33°C° 0 mm 4 m/s 621 mmHg 7%
13:00 +34°C° 0 mm 5 m/s 620 mmHg 5%
14:00 +35°C° 0 mm 7 m/s 619 mmHg 4%
15:00 +33°C° 0 mm 6 m/s 619 mmHg 5%
16:00 +32°C° 0 mm 6 m/s 619 mmHg 5%
17:00 +30°C° 0 mm 6 m/s 619 mmHg 6%
18:00 +26°C° 0 mm 5 m/s 619 mmHg 8%
19:00 +22°C° 0 mm 3 m/s 618 mmHg 10%
20:00 +18°C° 0 mm 2 m/s 618 mmHg 13%
21:00 +17°C° 0 mm 2 m/s 618 mmHg 15%
22:00 +16°C° 0 mm 1 m/s 619 mmHg 17%
23:00 +15°C° 0 mm 1 m/s 619 mmHg 19%
Mostrar mais

Necessitamos do seu Consentimento

A Meteoprog e os seus Fornecedores de Serviços podem armazenar e aceder a dados pessoais como cookies, identificadores do dispositivo ou outras tecnologias semelhantes existentes no seu dispositivo e processar estes dados para personalizar conteúdos e anúncios, assim como funcionalidades nas redes sociais e análise de tráfego.

  • Armazenar e/ou aceder a informações no seu dispositivo

    Os cookies, identificadores do dispositivo ou outras informações podem ser armazenados ou acedidos no seu dispositivo, para os fins acima indicados.

  • Anúncios e conteúdos personalizados, medição de anúncios e conteúdos, dados sobre o público-alvo e desenvolvimento de produtos

    Os anúncios e os conteúdos podem ser personalizados com base num perfil. Podem ser adicionados dados adicionais para uma maior personalização dos anúncios e dos conteúdos. A eficácia dos anúncios e dos conteúdos pode ser medida. Podem ser obtidas informações sobre o público que visualizou os anúncios e os conteúdos. Estes dados podem ser usados para desenvolver ou melhorar sistemas, softwares ou a experiência do utilizador.

Ao clicar em "Eu concordo”, permitirá o uso de cookies, identificadores do dispositivo e web beacons mencionados ou outras tecnologias semelhantes. As configurações do navegador do seu dispositivo podem ser alteradas.

Para certos fins, podem ser invocados interesses legítimos ao invés de consentimento. Pode ler mais informação sobre este assunto na nossa Política de Privacidade e Cookies.